N4GGC Weather Reports


time (UTC)temp
F
wind
direction
speed
knots
gust
knots
rain 1hr
in
rain 24hr
in
rain mn
in
humidity
%
barometer
mb
20260505024850 60 351 0.0 0.0 0.00 0.00 0.00 71 1013.3
20260505024349 60 351 0.0 0.0 0.00 0.00 0.00 70 1013.3
20260505023849 60 351 0.0 0.0 0.00 0.00 0.00 70 1013.4
20260505023350 60 351 0.0 0.0 0.00 0.00 0.00 69 1013.3
20260505022842 60 351 0.0 0.0 0.00 0.00 0.00 70 1013.3
20260505022558 60 351 0.0 0.0 0.00 0.00 0.00 70 1013.5
20260505021820 61 351 0.0 0.0 0.00 0.00 0.00 70 1013.5
20260505021313 61 351 0.0 0.0 0.00 0.00 0.00 70 1013.5
20260505020751 61 351 0.0 0.0 0.00 0.00 0.00 70 1013.4
20260505020248 61 351 0.0 0.0 0.00 0.00 0.00 70 1013.5
20260505015746 60 351 0.0 0.0 0.00 0.00 0.00 71 1013.4
20260505015248 60 351 0.0 0.0 0.00 0.00 0.00 71 1013.4
20260505014734 60 351 0.0 0.0 0.00 0.00 0.00 71 1013.4
20260505014230 60 351 0.0 0.0 0.00 0.00 0.00 71 1013.3
20260505013646 61 351 0.0 0.0 0.00 0.00 0.00 71 1013.4
20260505013146 61 351 0.0 0.0 0.00 0.00 0.00 71 1013.2
20260505012634 61 351 0.0 0.0 0.00 0.00 0.00 70 1013.2
20260505012128 61 351 0.0 0.0 0.00 0.00 0.00 70 1013.1
20260505011855 61 351 0.0 0.0 0.00 0.00 0.00 69 1013.0
20260505011126 61 351 0.0 0.0 0.00 0.00 0.00 69 1013.0
20260505010621 61 351 0.0 0.0 0.00 0.00 0.00 69 1013.0
20260505010055 62 351 0.0 0.0 0.00 0.00 0.00 68 1013.0
20260505005817 62 351 0.0 0.0 0.00 0.00 0.00 68 1012.9
20260505005043 62 351 0.0 0.0 0.00 0.00 0.00 67 1012.8
20260505004538 63 351 0.0 0.0 0.00 0.00 0.00 67 1012.8
20260505004021 63 351 0.0 0.0 0.00 0.00 0.00 67 1012.7
20260505003520 63 351 0.0 0.0 0.00 0.00 0.00 66 1012.7
20260505003009 63 351 0.0 0.0 0.00 0.00 0.00 66 1012.6
20260505002458 63 351 0.0 0.0 0.00 0.00 0.00 66 1012.6
20260505001954 63 351 0.0 0.0 0.00 0.00 0.00 67 1012.6
20260505001718 63 351 0.0 0.0 0.00 0.00 0.00 66 1012.6
20260505000943 64 351 0.0 0.0 0.00 0.00 0.00 66 1012.6
20260505000421 64 351 0.0 0.0 0.00 0.00 0.00 66 1012.6
20260504235916 64 351 0.0 0.0 0.00 0.00 0.00 66 1012.5
20260504235340 64 355 0.0 0.0 0.00 0.00 0.00 65 1012.5
20260504234832 65 355 0.0 0.0 0.00 0.00 0.00 65 1012.7
20260504234329 65 219 0.0 0.0 0.00 0.00 0.00 65 1012.6
20260504233830 65 219 0.0 0.0 0.00 0.00 0.00 64 1012.5
20260504233328 66 219 0.0 0.0 0.00 0.00 0.00 64 1012.6
20260504233046 66 219 0.0 0.0 0.00 0.00 0.00 64 1012.7
20260504232320 67 219 0.0 0.0 0.00 0.00 0.00 63 1012.7
20260504231758 67 219 0.0 0.0 0.00 0.00 0.00 61 1012.6
20260504231252 68 219 0.0 0.0 0.00 0.00 0.00 61 1012.7
20260504230727 68 219 0.0 0.0 0.00 0.00 0.00 60 1012.7
20260504230148 69 219 0.0 0.0 0.00 0.00 0.00 58 1012.8
20260504225644 69 219 0.0 0.0 0.00 0.00 0.00 57 1012.9
20260504225140 69 219 0.0 0.0 0.00 0.00 0.00 55 1012.9
20260504224636 70 219 0.0 0.0 0.00 0.00 0.00 56 1013.0
20260504224133 70 219 0.0 0.0 0.00 0.00 0.00 55 1013.0
20260504223624 71 219 0.0 0.0 0.00 0.00 0.00 55 1013.2
20260504223337 71 219 0.0 0.0 0.00 0.00 0.00 54 1013.2
20260504222827 71 219 0.0 0.0 0.00 0.00 0.00 53 1013.4
20260504222328 71 219 0.0 0.0 0.00 0.00 0.00 54 1013.4
20260504222030 72 219 0.0 0.0 0.00 0.00 0.00 53 1013.4
20260504221044 72 219 0.0 0.0 0.00 0.00 0.00 52 1013.5
20260504220802 72 219 0.0 0.0 0.00 0.00 0.00 49 1013.5
20260504220032 72 219 0.0 0.0 0.00 0.00 0.00 48 1013.6
20260504215526 72 219 0.0 0.0 0.00 0.00 0.00 47 1013.5
20260504215023 72 159 0.0 0.0 0.00 0.00 0.00 46 1013.6
20260504214514 73 104 0.0 0.0 0.00 0.00 0.00 47 1013.6
20260504214008 73 96 0.0 0.0 0.00 0.00 0.00 46 1013.8
20260504213722 72 180 0.0 0.0 0.00 0.00 0.00 48 1013.8
20260504212954 72 180 0.0 0.0 0.00 0.00 0.00 48 1013.8
20260504212708 72 181 0.0 0.0 0.00 0.00 0.00 48 1013.8
20260504211946 72 180 0.0 0.0 0.00 0.00 0.00 48 1013.7
20260504211444 72 180 0.0 0.0 0.00 0.00 0.00 47 1013.8
20260504211207 72 176 0.0 0.0 0.00 0.00 0.00 49 1013.6
20260504210438 72 176 0.0 0.0 0.00 0.00 0.00 46 1013.5
20260504205930 73 279 0.0 0.0 0.00 0.00 0.00 46 1013.5
20260504205414 73 279 0.0 0.0 0.00 0.00 0.00 45 1013.4
20260504204908 72 202 0.0 2.6 0.00 0.00 0.00 48 1013.5
20260504204404 72 210 0.0 2.6 0.00 0.00 0.00 47 1013.4
20260504203852 72 200 0.0 1.7 0.00 0.00 0.00 46 1013.5
20260504203352 72 92 0.0 0.0 0.00 0.00 0.00 45 1013.5
20260504202845 72 248 0.0 0.0 0.00 0.00 0.00 47 1013.6
20260504202346 72 248 0.0 0.0 0.00 0.00 0.00 46 1013.7
20260504201833 73 252 0.0 0.0 0.00 0.00 0.00 46 1013.8
20260504201326 73 227 0.0 0.0 0.00 0.00 0.00 44 1013.7
20260504200820 73 297 0.0 0.0 0.00 0.00 0.00 46 1013.8
20260504200310 73 190 0.0 1.7 0.00 0.00 0.00 44 1013.9
20260504195808 74 189 0.9 9.6 0.00 0.00 0.00 46 1014.0
20260504195304 73 189 1.7 10.4 0.00 0.00 0.00 44 1014.0
20260504195254 74 27 1.7 10.4 0.00 0.00 0.00 44 1014.0
20260504194251 75 138 0.9 5.2 0.00 0.00 0.00 44 1014.1
20260504194007 74 120 0.0 1.7 0.00 0.00 0.00 46 1014.1
20260504193240 73 173 0.0 4.3 0.00 0.00 0.00 46 1014.2
20260504192732 73 173 0.9 6.1 0.00 0.00 0.00 48 1014.2
20260504192450 72 134 1.7 8.7 0.00 0.00 0.00 47 1014.2
20260504191720 72 127 0.9 8.7 0.00 0.00 0.00 45 1014.3
20260504191214 73 103 0.0 0.0 0.00 0.00 0.00 46 1014.4
20260504190709 73 158 0.0 0.0 0.00 0.00 0.00 45 1014.4
20260504190157 71 159 0.0 0.0 0.00 0.00 0.00 49 1014.2
20260504185652 71 154 0.0 0.0 0.00 0.00 0.00 48 1014.4
20260504185151 72 202 0.0 0.0 0.00 0.00 0.00 47 1014.6
20260504184904 72 181 0.0 0.0 0.00 0.00 0.00 48 1014.8
20260504184138 70 223 0.0 0.0 0.00 0.00 0.00 49 1014.5
20260504183628 70 223 0.0 0.0 0.00 0.00 0.00 48 1014.6
20260504183126 70 194 0.0 0.0 0.00 0.00 0.00 48 1014.9
20260504182620 70 184 0.0 0.0 0.00 0.00 0.00 47 1015.1
20260504182116 71 28 0.0 4.3 0.00 0.00 0.00 47 1015.2
20260504181614 71 87 0.0 4.3 0.00 0.00 0.00 46 1015.2
20260504181102 71 143 0.9 4.3 0.00 0.00 0.00 44 1015.2
20260504180554 72 298 0.9 4.3 0.00 0.00 0.00 43 1015.4
20260504180048 73 281 0.9 6.1 0.00 0.00 0.00 41 1015.3
20260504175547 73 214 1.7 6.1 0.00 0.00 0.00 46 1015.5
20260504175038 72 240 1.7 6.1 0.00 0.00 0.00 43 1015.4
20260504174534 73 333 1.7 7.0 0.00 0.00 0.00 42 1015.5
20260504174025 75 270 1.7 7.0 0.00 0.00 0.00 44 1015.7
20260504173516 74 26 4.3 8.7 0.00 0.00 0.00 44 1015.6
20260504173243 73 164 4.3 8.7 0.00 0.00 0.00 44 1015.7
20260504172508 74 134 2.6 11.3 0.00 0.00 0.00 42 1015.7
20260504172225 73 172 2.6 11.3 0.00 0.00 0.00 45 1015.7
20260504171456 72 176 2.6 9.6 0.00 0.00 0.00 44 1015.7
20260504170949 71 150 4.3 9.6 0.00 0.00 0.00 46 1015.7
20260504170703 71 120 2.6 8.7 0.00 0.00 0.00 43 1015.8
20260504160345 66 138 1.7 6.1 0.00 0.00 0.00 47 1016.3
20260504150726 64 141 1.7 5.2 0.00 0.00 0.00 48 1017.0
20260504150214 63 141 0.9 5.2 0.00 0.00 0.00 49 1017.0
20260504141016 60 124 1.7 5.2 0.00 0.00 0.00 52 1016.9
20260504140504 60 124 1.7 7.0 0.00 0.00 0.00 52 1016.8
20260504130753 59 173 0.0 0.0 0.00 0.00 0.00 52 1017.1
20260504130240 59 173 0.0 0.0 0.00 0.00 0.00 51 1017.1
20260504110326 47 281 0.0 0.0 0.00 0.00 0.00 69 1016.3
20260504100125 48 281 0.0 0.0 0.00 0.00 0.00 66 1016.1
20260504081319 49 281 0.0 0.0 0.00 0.00 0.00 63 1016.1
20260504080808 49 281 0.0 0.0 0.00 0.00 0.00 62 1016.2
20260504080306 49 281 0.0 0.0 0.00 0.00 0.00 63 1016.2
20260504050252 48 281 0.0 0.0 0.00 0.00 0.00 61 1016.5
20260504045742 48 281 0.0 0.0 0.00 0.00 0.00 62 1016.3
20260504045232 48 281 0.0 0.0 0.00 0.00 0.00 62 1016.4
20260504044722 47 281 0.0 0.0 0.00 0.00 0.00 61 1016.2
20260504044216 47 281 0.0 0.0 0.00 0.00 0.00 61 1016.1
20260504043710 47 281 0.0 0.0 0.00 0.00 0.00 61 1016.0
20260504043208 47 281 0.0 0.0 0.00 0.00 0.00 64 1016.0
20260504042707 47 281 0.0 0.0 0.00 0.00 0.00 61 1016.1
20260504042150 46 281 0.0 0.0 0.00 0.00 0.00 63 1016.0
20260504041900 46 281 0.0 0.0 0.00 0.00 0.00 65 1015.9
20260504041348 46 281 0.0 0.0 0.00 0.00 0.00 62 1015.9
20260504040622 46 281 0.0 0.0 0.00 0.00 0.00 60 1015.9
20260504040108 46 281 0.0 0.0 0.00 0.00 0.00 60 1016.0
20260504035559 46 281 0.0 0.0 0.00 0.00 0.00 61 1016.1
20260504035056 46 281 0.0 0.0 0.00 0.00 0.00 60 1016.0
20260504034553 46 281 0.0 0.0 0.00 0.00 0.00 59 1016.0
20260504034048 46 281 0.0 0.0 0.00 0.00 0.00 59 1016.0
20260504033539 46 281 0.0 0.0 0.00 0.00 0.00 59 1016.0
20260504033033 46 281 0.0 0.0 0.00 0.00 0.00 59 1016.0
20260504032741 46 281 0.0 0.0 0.00 0.00 0.00 58 1016.1
20260504032010 46 281 0.0 0.0 0.00 0.00 0.00 60 1016.1
20260504031454 46 281 0.0 0.0 0.00 0.00 0.00 59 1016.0
20260504030948 46 281 0.0 0.0 0.00 0.00 0.00 59 1016.0
20260504030705 46 281 0.0 0.0 0.00 0.00 0.00 60 1016.0
20260504025946 46 281 0.0 0.0 0.00 0.00 0.00 58 1016.0
20260504025922 46 281 0.0 0.0 0.00 0.00 0.00 57 1016.1